Weather History for Mandan, ND

Change the Weather History Date:

Thursday, March 13, 2014

  Actual Average (KBIS) Record (KBIS)
Temperature  
Mean Temperature 45 °F 28 °F  
Max Temperature 57 °F 39 °F 71 °F (1914)
Min Temperature 33 °F 18 °F -25 °F (1951)
Degree Days  
Heating Degree Days 20 37  
Month to date heating degree days 510  
Since 1 July heating degree days 6941  
Cooling Degree Days 0 0  
Month to date cooling degree days 0  
Year to date cooling degree days 0  
Moisture  
Dew Point 29 °F    
Average Humidity 60    
Maximum Humidity 81    
Minimum Humidity 36    
Precipitation  
Precipitation 0.00 in 0.03 in 0.41 in (1997)
Month to date precipitation 0.33  
Year to date precipitation 1.27  
Snow  
Snow 0.00 in 0.30 in 6.70 in (1997)
Month to date snowfall 4.1  
Since 1 July snowfall 41.6  
Snow Depth -    
Sea Level Pressure  
Sea Level Pressure 29.70 in    
Wind  
Wind Speed 14 mph (West)    
Max Wind Speed 26 mph    
Max Gust Speed 33 mph    
Visibility 10 miles    
Events      
T = Trace of Precipitation, MM = Missing Value Source: NWS Daily Summary

Daily Weather History Graph

Daily Weather History Graph

Search for Another Location

Airport:

Trip Planner

Search our weather history database for the weather conditions in past years. The results will help you decide how hot, cold, wet, or windy it might be!

Date:

Astronomy

Mar. 13, 2014 Rise Set
Actual Time 8:00 AM CDT 7:46 PM CDT
Civil Twilight 7:30 AM CDT 8:16 PM CDT
Nautical Twilight 6:54 AM CDT 8:52 PM CDT
Astronomical Twilight 6:19 AM CDT 9:27 PM CDT
Moon 5:06 PM CDT (3/13) 6:16 AM CDT (3/13)
Length of Visible Light 12h 46m
Length of Day
11h 46m
Waxing Gibbous, 91% of the Moon is Illuminated
Mar 13
Waxing Gibbous
Mar 16
Full
Mar 23
Last Quarter
Mar 30
New
Apr 7
First Quarter

Hourly Weather History & Observations

Time (CDT) Temp. Windchill Dew Point Humidity Pressure Visibility Wind Dir Wind Speed Gust Speed Precip Events Conditions
12:15 AM 33.8 °F 25.8 °F 28.4 °F 81% 29.87 in 10.0 mi West 10.4 mph - N/A   Clear
12:35 AM 35.6 °F 27.5 °F 28.4 °F 75% 29.87 in 10.0 mi WSW 11.5 mph - N/A   Clear
12:55 AM 33.8 °F 24.3 °F 28.4 °F 81% 29.87 in 10.0 mi WSW 13.8 mph - N/A   Clear
1:15 AM 33.8 °F 25.3 °F 28.4 °F 81% 29.87 in 10.0 mi WSW 11.5 mph - N/A   Clear
1:35 AM 35.6 °F 27.1 °F 28.4 °F 75% 29.86 in 10.0 mi West 12.7 mph - N/A   Clear
1:55 AM 35.6 °F 27.1 °F 28.4 °F 75% 29.85 in 10.0 mi WSW 12.7 mph - N/A   Clear
2:15 AM 35.6 °F 27.1 °F 28.4 °F 75% 29.85 in 10.0 mi WSW 12.7 mph - N/A   Clear
2:35 AM 35.6 °F 27.5 °F 28.4 °F 75% 29.85 in 10.0 mi WSW 11.5 mph - N/A   Clear
2:55 AM 37.4 °F 29.3 °F 28.4 °F 70% 29.84 in 10.0 mi West 12.7 mph - N/A   Clear
3:15 AM 37.4 °F 28.9 °F 28.4 °F 70% 29.84 in 10.0 mi WSW 13.8 mph - N/A   Clear
3:35 AM 37.4 °F 28.5 °F 28.4 °F 70% 29.82 in 10.0 mi West 15.0 mph - N/A   Clear
3:55 AM 37.4 °F 29.8 °F 28.4 °F 70% 29.82 in 10.0 mi WSW 11.5 mph - N/A   Clear
4:15 AM 35.6 °F 27.5 °F 28.4 °F 75% 29.81 in 10.0 mi WSW 11.5 mph - N/A   Clear
4:35 AM 37.4 °F 30.3 °F 28.4 °F 70% 29.80 in 10.0 mi WSW 10.4 mph - N/A   Clear
4:55 AM 35.6 °F 27.1 °F 28.4 °F 75% 29.79 in 10.0 mi WSW 12.7 mph - N/A   Clear
5:15 AM 35.6 °F 28.0 °F 28.4 °F 75% 29.78 in 10.0 mi WSW 10.4 mph - N/A   Clear
5:35 AM 35.6 °F 26.6 °F 28.4 °F 75% 29.78 in 10.0 mi WSW 13.8 mph - N/A   Clear
5:55 AM 37.4 °F 28.9 °F 28.4 °F 70% 29.77 in 10.0 mi WSW 13.8 mph - N/A   Clear
6:15 AM 35.6 °F 25.9 °F 28.4 °F 75% 29.76 in 10.0 mi WSW 16.1 mph - N/A   Clear
6:35 AM 35.6 °F 27.1 °F 28.4 °F 75% 29.76 in 10.0 mi West 12.7 mph - N/A   Clear
6:55 AM 35.6 °F 28.0 °F 26.6 °F 70% 29.75 in 10.0 mi WSW 10.4 mph - N/A   Clear
7:15 AM 35.6 °F 27.5 °F 26.6 °F 70% 29.74 in 10.0 mi WSW 11.5 mph - N/A   Clear
7:35 AM 35.6 °F 28.0 °F 26.6 °F 70% 29.74 in 10.0 mi WSW 10.4 mph - N/A   Clear
7:55 AM 35.6 °F 28.0 °F 26.6 °F 70% 29.74 in 10.0 mi West 10.4 mph - N/A   Clear
8:15 AM 35.6 °F 26.6 °F 26.6 °F 70% 29.73 in 10.0 mi WSW 13.8 mph - N/A   Clear
8:35 AM 35.6 °F 26.2 °F 28.4 °F 75% 29.71 in 10.0 mi WSW 15.0 mph - N/A   Clear
8:55 AM 35.6 °F 27.5 °F 28.4 °F 75% 29.71 in 10.0 mi West 11.5 mph - N/A   Clear
9:15 AM 37.4 °F 29.3 °F 28.4 °F 70% 29.70 in 10.0 mi West 12.7 mph - N/A   Clear
9:35 AM 39.2 °F 30.5 °F 28.4 °F 65% 29.69 in 10.0 mi WSW 16.1 mph - N/A   Clear
9:55 AM 41.0 °F 33.5 °F 30.2 °F 65% 29.68 in 10.0 mi WSW 13.8 mph 18.4 mph N/A   Clear
10:15 AM 42.8 °F 35.1 °F 28.4 °F 57% 29.67 in 10.0 mi West 16.1 mph 21.9 mph N/A   Clear
10:35 AM 44.6 °F 37.4 °F 30.2 °F 57% 29.67 in 10.0 mi West 16.1 mph 19.6 mph N/A   Clear
10:55 AM 44.6 °F 37.2 °F 30.2 °F 57% 29.66 in 10.0 mi West 17.3 mph - N/A   Clear
11:15 AM 46.4 °F 39.2 °F 30.2 °F 53% 29.65 in 10.0 mi West 18.4 mph 24.2 mph N/A   Clear
11:35 AM 48.2 °F - 32.0 °F 54% 29.65 in 10.0 mi WSW 17.3 mph 21.9 mph N/A   Clear
11:55 AM 48.2 °F - 32.0 °F 54% 29.64 in 10.0 mi West 15.0 mph - N/A   Clear
12:15 PM 50.0 °F - 32.0 °F 50% 29.63 in 10.0 mi WSW 17.3 mph 21.9 mph N/A   Clear
12:35 PM 53.6 °F - 32.0 °F 44% 29.63 in 10.0 mi West 18.4 mph 21.9 mph N/A   Clear
12:55 PM 53.6 °F - 32.0 °F 44% 29.63 in 10.0 mi West 18.4 mph 21.9 mph N/A   Clear
1:15 PM 55.4 °F - 32.0 °F 41% 29.62 in 10.0 mi West 21.9 mph 25.3 mph N/A   Clear
1:35 PM 55.4 °F - 32.0 °F 41% 29.61 in 10.0 mi West 19.6 mph 24.2 mph N/A   Clear
1:55 PM 55.4 °F - 32.0 °F 41% 29.60 in 10.0 mi West 23.0 mph 26.5 mph N/A   Clear
2:15 PM 57.2 °F - 32.0 °F 38% 29.59 in 10.0 mi West 23.0 mph 31.1 mph N/A   Clear
2:35 PM 57.2 °F - 32.0 °F 38% 29.59 in 10.0 mi West 19.6 mph 27.6 mph N/A   Clear
2:55 PM 57.2 °F - 32.0 °F 38% 29.58 in 10.0 mi WNW 26.5 mph 32.2 mph N/A   Clear
3:15 PM 57.2 °F - 32.0 °F 38% 29.58 in 10.0 mi West 23.0 mph 29.9 mph N/A   Clear
3:35 PM 57.2 °F - 32.0 °F 38% 29.57 in 10.0 mi West 25.3 mph 29.9 mph N/A   Clear
3:55 PM 57.2 °F - 32.0 °F 38% 29.58 in 10.0 mi WNW 20.7 mph 31.1 mph N/A   Clear
4:15 PM 57.2 °F - 32.0 °F 38% 29.58 in 10.0 mi WNW 23.0 mph 33.4 mph N/A   Clear
4:35 PM 57.2 °F - 32.0 °F 38% 29.58 in 10.0 mi WNW 25.3 mph 33.4 mph N/A   Clear
4:55 PM 57.2 °F - 30.2 °F 36% 29.58 in 10.0 mi WNW 24.2 mph 33.4 mph N/A   Clear
5:15 PM 57.2 °F - 30.2 °F 36% 29.59 in 10.0 mi NW 21.9 mph 33.4 mph N/A   Clear
5:35 PM 55.4 °F - 32.0 °F 41% 29.60 in 10.0 mi NNW 19.6 mph 27.6 mph N/A   Clear
5:55 PM 53.6 °F - 32.0 °F 44% 29.60 in 10.0 mi NNW 24.2 mph 33.4 mph N/A   Clear
6:15 PM 53.6 °F - 32.0 °F 44% 29.61 in 10.0 mi NNW 20.7 mph 29.9 mph N/A   Clear
6:35 PM 50.0 °F - 32.0 °F 50% 29.62 in 10.0 mi NNW 18.4 mph 27.6 mph N/A   Clear
6:55 PM 50.0 °F - 28.4 °F 43% 29.64 in 10.0 mi NNW 24.2 mph 32.2 mph N/A   Clear
7:15 PM 48.2 °F - 26.6 °F 43% 29.65 in 10.0 mi NNW 18.4 mph 28.8 mph N/A   Mostly Cloudy
7:35 PM 46.4 °F 40.1 °F 26.6 °F 46% 29.66 in 10.0 mi North 15.0 mph 23.0 mph N/A   Overcast
7:55 PM 44.6 °F 37.8 °F 28.4 °F 53% 29.67 in 10.0 mi NNW 15.0 mph - N/A   Scattered Clouds
8:15 PM 41.0 °F 33.9 °F 28.4 °F 61% 29.67 in 10.0 mi North 12.7 mph - N/A   Scattered Clouds
8:35 PM 39.2 °F 31.6 °F 28.4 °F 65% 29.68 in 10.0 mi NNW 12.7 mph - N/A   Overcast
8:55 PM 39.2 °F 31.2 °F 28.4 °F 65% 29.68 in 10.0 mi NNW 13.8 mph - N/A   Mostly Cloudy
9:15 PM 39.2 °F 31.2 °F 28.4 °F 65% 29.68 in 10.0 mi NNW 13.8 mph - N/A   Partly Cloudy
9:35 PM 37.4 °F 28.9 °F 28.4 °F 70% 29.69 in 10.0 mi NW 13.8 mph - N/A   Mostly Cloudy
9:55 PM 37.4 °F 29.3 °F 26.6 °F 65% 29.69 in 10.0 mi NW 12.7 mph - N/A   Mostly Cloudy
10:15 PM 37.4 °F 28.9 °F 28.4 °F 70% 29.70 in 10.0 mi NW 13.8 mph - N/A   Mostly Cloudy
10:35 PM 37.4 °F 29.3 °F 28.4 °F 70% 29.70 in 10.0 mi NW 12.7 mph - N/A   Scattered Clouds
10:55 PM 35.6 °F 28.6 °F 28.4 °F 75% 29.71 in 10.0 mi NW 9.2 mph - N/A   Mostly Cloudy
11:15 PM 35.6 °F 27.1 °F 28.4 °F 75% 29.71 in 10.0 mi NW 12.7 mph - N/A   Scattered Clouds
11:35 PM 37.4 °F 28.9 °F 28.4 °F 70% 29.72 in 10.0 mi NW 13.8 mph 23.0 mph N/A   Partly Cloudy
11:55 PM 35.6 °F 25.9 °F 28.4 °F 75% 29.73 in 10.0 mi NW 16.1 mph 21.9 mph N/A   Clear